Location: Acton
(51.4942°N, 0.2232°W)
Time: 04:23:18
(UTC+00:00)

H-2A R/B - Pass Details

Date: 18 September 2020
Orbit: 734 x 836 km, 98.2° (Epoch: 20 October)

Event Time Altitude Azimuth Distance (km) Brightness Sun altitude
Rises 19:14:38 0° 173° (S) 3,163 5.0 -11.1°
Reaches altitude 10° 19:16:55 10° 177° (S) 2,252 4.2 -11.4°
Maximum altitude 19:21:49 63° 258° (WSW) 844 2.5 -12.2°
Drops below altitude 10° 19:26:53 10° 340° (NNW) 2,321 5.1 -12.9°
Sets 19:29:16 0° 344° (NNW) 3,268 5.8 -13.3°
